Weather History for Chicago Executive, IL

Change the Weather History Date:

Friday, February 22, 2013

  Actual Average Record
Temperature  
Mean Temperature 30 °F 30 °F  
Max Temperature 35 °F 38 °F 59 °F (2000)
Min Temperature 25 °F 23 °F 13 °F (2009)
Degree Days  
Heating Degree Days 35 35  
Month to date heating degree days 880 838  
Since 1 July heating degree days 4300 4535  
Cooling Degree Days 0 0  
Month to date cooling degree days 0 0  
Year to date cooling degree days 0 0  
Moisture  
Dew Point 24 °F    
Average Humidity 86    
Maximum Humidity 93    
Minimum Humidity 75    
Precipitation  
Precipitation 0.06 in 0.03 in 0.03 in (2010)
Month to date precipitation 1.13 0.74  
Year to date precipitation 4.53 2.37  
Sea Level Pressure  
Sea Level Pressure 29.89 in    
Wind  
Wind Speed 9 mph (SSE)    
Max Wind Speed 16 mph    
Max Gust Speed 23 mph    
Visibility 4 miles    
Events Fog , Snow    
T = Trace of Precipitation, MM = Missing Value Source: NWS Daily Summary

Daily Weather History Graph

Daily Weather History Graph

Search for Another Location

Airport:

Trip Planner

Search our weather history database for the weather conditions in past years. The results will help you decide how hot, cold, wet, or windy it might be!

Date:

Astronomy

Feb. 22, 2013 Rise Set
Actual Time 6:37 AM CST 5:33 PM CST
Civil Twilight 6:08 AM CST 6:01 PM CST
Nautical Twilight 5:36 AM CST 6:34 PM CST
Astronomical Twilight 5:04 AM CST 7:06 PM CST
Moon 2:42 PM CST (2/22) 4:24 AM CST (2/22)
Length of Visible Light 11h 52m
Length of Day
10h 56m
Waxing Gibbous, 90% of the Moon is Illuminated
Feb 22
Waxing Gibbous
Feb 25
Full
Mar 4
Last Quarter
Mar 11
New
Mar 19
First Quarter

Hourly Weather History & Observations

Time (CST) Temp. Windchill Dew Point Humidity Pressure Visibility Wind Dir Wind Speed Gust Speed Precip Events Conditions
12:52 AM 26.1 °F 15.6 °F 23.0 °F 88% 30.01 in 0.5 mi East 11.5 mph 19.6 mph 0.00 in Fog , Snow Snow
1:52 AM 26.1 °F 14.5 °F 23.0 °F 88% 29.98 in 1.0 mi ESE 13.8 mph 20.7 mph 0.00 in Snow Light Snow
2:04 AM 24.8 °F 14.6 °F 23.0 °F 93% 29.95 in 0.8 mi East 10.4 mph 20.7 mph 0.00 in Snow Light Snow
2:33 AM 24.8 °F 13.4 °F 21.2 °F 86% 29.93 in 0.8 mi East 12.7 mph 19.6 mph 0.00 in Snow Light Snow
2:52 AM 25.0 °F 14.2 °F 23.0 °F 92% 29.95 in 0.8 mi East 11.5 mph - 0.00 in Snow Light Snow
3:21 AM 24.8 °F 14.6 °F 23.0 °F 93% 29.92 in 0.5 mi East 10.4 mph 17.3 mph 0.00 in Fog , Snow Snow
3:28 AM 24.8 °F 15.3 °F 23.0 °F 93% 29.92 in 0.5 mi East 9.2 mph - 0.00 in Fog , Snow Snow
3:48 AM 24.8 °F 16.9 °F 23.0 °F 93% 29.91 in 1.2 mi ESE 6.9 mph - 0.00 in Snow Light Snow
4:01 AM 26.6 °F 17.5 °F 23.0 °F 86% 29.91 in 1.8 mi ESE 9.2 mph - 0.00 in Snow Light Snow
4:10 AM 26.6 °F 15.7 °F 21.2 °F 80% 29.90 in 2.0 mi ESE 12.7 mph 18.4 mph 0.00 in Snow Light Snow
4:17 AM 24.8 °F 14.6 °F 21.2 °F 86% 29.90 in 1.2 mi ESE 10.4 mph 18.4 mph 0.00 in Snow Light Snow
4:24 AM 24.8 °F 16.1 °F 21.2 °F 86% 29.90 in 1.0 mi ESE 8.1 mph - 0.00 in Snow Light Snow
4:44 AM 24.8 °F 16.9 °F 21.2 °F 86% 29.89 in 1.2 mi East 6.9 mph - 0.00 in Snow Light Snow
4:52 AM 25.0 °F 16.3 °F 21.9 °F 88% 29.92 in 1.8 mi ESE 8.1 mph - 0.00 in Snow Light Snow
4:58 AM 24.8 °F 16.9 °F 21.2 °F 86% 29.89 in 2.0 mi East 6.9 mph - 0.00 in Snow Light Snow
5:10 AM 24.8 °F 16.1 °F 21.2 °F 86% 29.89 in 3.0 mi East 8.1 mph 19.6 mph 0.00 in Snow Light Snow
5:18 AM 24.8 °F 16.9 °F 21.2 °F 86% 29.89 in 4.0 mi East 6.9 mph - 0.00 in   Overcast
5:57 AM 24.8 °F 16.9 °F 21.2 °F 86% 29.88 in 2.0 mi East 6.9 mph - 0.00 in Snow Light Snow
6:27 AM 26.6 °F 19.1 °F 21.2 °F 80% 29.86 in 2.0 mi ESE 6.9 mph - 0.00 in   Overcast
6:43 AM 26.6 °F 19.1 °F 21.2 °F 80% 29.86 in 2.0 mi ESE 6.9 mph - 0.00 in   Overcast
6:52 AM 26.1 °F 19.4 °F 21.9 °F 84% 29.89 in 7.0 mi ESE 5.8 mph - 0.00 in   Overcast
7:52 AM 27.0 °F 19.5 °F 23.0 °F 85% 29.87 in 7.0 mi ESE 6.9 mph - N/A   Overcast
8:52 AM 28.0 °F 21.7 °F 24.1 °F 85% 29.86 in 5.0 mi SE 5.8 mph - N/A   Overcast
9:52 AM 28.0 °F 20.8 °F 25.0 °F 88% 29.87 in 3.0 mi South 6.9 mph - N/A   Overcast
10:34 AM 28.4 °F 23.3 °F 26.6 °F 93% 29.84 in 2.5 mi SSE 4.6 mph - N/A   Overcast
10:52 AM 28.9 °F 22.8 °F 26.1 °F 89% 29.87 in 2.0 mi SSE 5.8 mph - N/A   Overcast
11:10 AM 28.4 °F 22.2 °F 26.6 °F 93% 29.84 in 1.5 mi South 5.8 mph - N/A   Overcast
11:22 AM 28.4 °F 21.2 °F 26.6 °F 93% 29.85 in 1.0 mi South 6.9 mph - 0.00 in Snow Light Snow
11:45 AM 30.2 °F 22.6 °F 28.4 °F 93% 29.85 in 1.2 mi South 8.1 mph - 0.00 in   Overcast
11:52 AM 30.0 °F 23.2 °F 28.0 °F 92% 29.87 in 1.2 mi South 6.9 mph - 0.00 in   Overcast
12:26 PM 30.2 °F 22.6 °F 28.4 °F 93% 29.82 in 2.0 mi South 8.1 mph - N/A   Overcast
12:52 PM 30.9 °F 24.3 °F 28.9 °F 92% 29.84 in 2.0 mi South 6.9 mph - 0.01 in Snow Light Snow
1:36 PM 33.8 °F 28.6 °F 30.2 °F 87% 29.81 in 4.0 mi SSW 5.8 mph - 0.02 in   Overcast
1:52 PM 33.1 °F 27.7 °F 30.0 °F 89% 29.83 in 4.0 mi SSW 5.8 mph - 0.02 in   Overcast
2:07 PM 33.8 °F 28.6 °F 30.2 °F 87% 29.81 in 5.0 mi SW 5.8 mph - N/A   Overcast
2:52 PM 34.0 °F 27.2 °F 28.9 °F 82% 29.84 in 8.0 mi West 8.1 mph - 0.01 in   Overcast
3:04 PM 35.6 °F 29.2 °F 28.4 °F 75% 29.82 in 8.0 mi WSW 8.1 mph 18.4 mph 0.01 in   Overcast
3:52 PM 34.0 °F 26.0 °F 28.0 °F 79% 29.86 in 9.0 mi WSW 10.4 mph 19.6 mph 0.02 in   Overcast
4:52 PM 33.1 °F 24.4 °F 26.1 °F 75% 29.87 in 9.0 mi WSW 11.5 mph - N/A   Overcast
5:52 PM 30.9 °F 21.2 °F 25.0 °F 79% 29.89 in 9.0 mi WSW 12.7 mph - N/A   Overcast
6:52 PM 30.9 °F 22.8 °F 25.0 °F 79% 29.91 in 5.0 mi WSW 9.2 mph - 0.00 in Snow Light Snow
7:52 PM 30.0 °F 20.5 °F 24.1 °F 79% 29.92 in 7.0 mi WSW 11.5 mph 16.1 mph 0.00 in   Overcast
8:52 PM 30.0 °F 21.1 °F 24.1 °F 79% 29.92 in 6.0 mi SW 10.4 mph - N/A   Haze
9:52 PM 28.9 °F 21.9 °F 24.1 °F 82% 29.92 in 5.0 mi SW 6.9 mph - 0.00 in Snow Light Snow
10:25 PM 28.4 °F 19.7 °F 23.0 °F 80% 29.90 in 6.0 mi WSW 9.2 mph 16.1 mph 0.00 in   Haze
10:52 PM 28.9 °F 20.4 °F 23.0 °F 78% 29.92 in 6.0 mi WSW 9.2 mph - 0.00 in   Haze
11:52 PM 28.9 °F 20.4 °F 23.0 °F 78% 29.91 in 6.0 mi SW 9.2 mph - N/A   Haze